Asheville, NC

5:05 PM EDT on May 29, 2017 (GMT -0400)
Asheville Regional

Weather History for KAVL - August, 2008

Change the Weather History Date:

Wednesday, August 27, 2008

  Actual Average Record
Temperature  
Mean Temperature 73 °F 72 °F  
Max Temperature 79 °F 82 °F 93 °F (1943)
Min Temperature 67 °F 62 °F 49 °F (1945)
Degree Days  
Heating Degree Days 0 0  
Month to date heating degree days 0 0  
Since 1 June heating degree days 14  
Since 1 July heating degree days 1 0  
Cooling Degree Days 8 7  
Month to date cooling degree days 214 222  
Year to date cooling degree days 738 732  
Since 1 June cooling degree days 674  
Growing Degree Days 22 (Base 50)    
Moisture  
Dew Point 67 °F    
Average Humidity 85    
Maximum Humidity 100    
Minimum Humidity 69    
Precipitation  
Precipitation 0.39 in 0.15 in 2.56 in (1995)
Month to date precipitation 5.76 3.85  
Year to date precipitation 25.66 31.06  
Snow  
Snow 0.00 in 0.00 in 0.00 in ()
Month to date snowfall 0.0 0.0  
Since 1 June snowfall 0.0  
Since 1 July snowfall 0.0 0.0  
Snow Depth -    
Sea Level Pressure  
Sea Level Pressure 29.85 in    
Wind  
Wind Speed 6 mph (SSE)    
Max Wind Speed 16 mph    
Max Gust Speed 18 mph    
Visibility 6 miles    
Events Rain    
T = Trace of Precipitation, MM = Missing Value Source: NWS Daily Summary

Daily Weather History Graph

Daily Weather History Graph

Search for Another Location

Airport or City:

Trip Planner

Search our weather history database for the weather conditions in past years. The results will help you decide how hot, cold, wet, or windy it might be!

Date:

Astronomy

Aug. 27, 2008 Rise Set
Actual Time 6:59 AM EDT 8:03 PM EDT
Civil Twilight 6:32 AM EDT 8:29 PM EDT
Nautical Twilight 6:01 AM EDT 9:00 PM EDT
Astronomical Twilight 5:29 AM EDT 9:32 PM EDT
Moon 3:11 AM EDT (8/27) 6:10 PM EDT (8/27)
Length of Visible Light 13h 56m
Length of Day
13h 04m
Waning Crescent, 12% of the Moon is Illuminated
Aug 27
Waning Crescent
Aug 30
New
Sep 7
First Quarter
Sep 15
Full
Sep 22
Last Quarter

Hourly Weather History & Observations

Time (EDT) Temp. Dew Point Humidity Pressure Visibility Wind Dir Wind Speed Gust Speed Precip Events Conditions
12:03 AM 66.2 °F 66.2 °F 100% 29.88 in 1.5 mi Calm Calm - 0.10 in Rain Heavy Rain
12:20 AM 66.2 °F 66.2 °F 100% 29.88 in 2.0 mi Calm Calm - 0.26 in Rain Heavy Rain
12:33 AM 66.2 °F 66.2 °F 100% 29.88 in 4.0 mi WSW 3.5 mph - 0.31 in Rain Rain
12:37 AM 66.2 °F 66.2 °F 100% 29.89 in 2.5 mi WSW 4.6 mph - 0.32 in Rain Heavy Rain
12:41 AM 66.2 °F 66.2 °F 100% 29.88 in 1.2 mi Calm Calm - 0.38 in Rain Heavy Rain
12:49 AM 66.2 °F 66.2 °F 100% 29.88 in 1.2 mi Calm Calm - 0.50 in Rain Heavy Rain
12:54 AM 66.9 °F 66.9 °F 100% 29.81 in 2.0 mi Calm Calm - 0.53 in Rain Heavy Rain
1:03 AM 66.2 °F 66.2 °F 100% 29.88 in 2.0 mi Calm Calm - 0.05 in Rain Heavy Rain
1:15 AM 66.2 °F 66.2 °F 100% 29.87 in 1.5 mi Calm Calm - 0.16 in Rain Heavy Rain
1:27 AM 66.2 °F 66.2 °F 100% 29.86 in 2.5 mi Calm Calm - 0.24 in Rain Heavy Rain
1:36 AM 66.2 °F 66.2 °F 100% 29.86 in 4.0 mi Calm Calm - 0.27 in Rain Light Rain
1:50 AM 66.2 °F 66.2 °F 100% 29.86 in 2.5 mi Calm Calm - 0.30 in Rain Light Rain
1:54 AM 66.9 °F 66.9 °F 100% 29.79 in 2.5 mi Calm Calm - 0.30 in Rain Light Rain
2:05 AM 66.2 °F 66.2 °F 100% 29.86 in 3.0 mi South 3.5 mph - 0.01 in Rain Light Rain
2:18 AM 66.2 °F 66.2 °F 100% 29.86 in 4.0 mi South 4.6 mph - 0.01 in   Overcast
2:42 AM 66.2 °F 66.2 °F 100% 29.86 in 6.0 mi SSE 3.5 mph - 0.01 in   Overcast
2:54 AM 66.9 °F 66.9 °F 100% 29.79 in 4.0 mi South 5.8 mph - 0.01 in   Overcast
3:49 AM 66.2 °F 66.2 °F 100% 29.85 in 10.0 mi Calm Calm - 0.01 in   Overcast
3:54 AM 66.9 °F 66.9 °F 100% 29.78 in 10.0 mi South 4.6 mph - 0.01 in   Overcast
4:02 AM 66.2 °F 66.2 °F 100% 29.85 in 10.0 mi ESE 3.5 mph - N/A   Overcast
4:46 AM 66.2 °F 66.2 °F 100% 29.85 in 10.0 mi Calm Calm - N/A   Overcast
4:54 AM 66.9 °F 66.9 °F 100% 29.78 in 10.0 mi Calm Calm - N/A   Overcast
5:01 AM 66.2 °F 66.2 °F 100% 29.85 in 10.0 mi Calm Calm - N/A   Overcast
5:15 AM 66.2 °F 66.2 °F 100% 29.85 in 5.0 mi Calm Calm - 0.00 in Rain Light Rain
5:30 AM 66.2 °F 66.2 °F 100% 29.86 in 2.0 mi South 3.5 mph - 0.02 in Rain Rain
5:45 AM 66.2 °F 66.2 °F 100% 29.86 in 3.0 mi Calm Calm - 0.06 in Rain Light Rain
5:54 AM 66.9 °F 66.9 °F 100% 29.79 in 2.5 mi SSE 3.5 mph - 0.06 in Rain Light Rain
5:56 AM 66.2 °F 66.2 °F 100% 29.86 in 3.0 mi SSE 3.5 mph - 0.00 in Rain Light Rain
6:31 AM 68.0 °F 66.2 °F 94% 29.86 in 7.0 mi Calm Calm - 0.01 in   Overcast
6:43 AM 68.0 °F 66.2 °F 94% 29.86 in 9.0 mi Calm Calm - 0.01 in   Overcast
6:54 AM 68.0 °F 66.9 °F 96% 29.80 in 4.0 mi SE 3.5 mph - 0.01 in   Overcast
7:01 AM 68.0 °F 66.2 °F 94% 29.87 in 9.0 mi SE 4.6 mph - N/A   Overcast
7:54 AM 68.0 °F 66.9 °F 96% 29.82 in 6.0 mi SSE 3.5 mph - 0.00 in   Overcast
8:03 AM 68.0 °F 68.0 °F 100% 29.88 in 3.0 mi SSE 4.6 mph - 0.00 in Rain Light Rain
8:05 AM 68.0 °F 68.0 °F 100% 29.88 in 2.5 mi SSE 4.6 mph - 0.00 in Rain Light Rain
8:19 AM 68.0 °F 68.0 °F 100% 29.88 in 8.0 mi SSE 3.5 mph - 0.00 in   Overcast
8:26 AM 68.0 °F 68.0 °F 100% 29.88 in 7.0 mi SSE 4.6 mph - 0.00 in   Overcast
8:36 AM 68.0 °F 68.0 °F 100% 29.89 in 2.0 mi SSE 5.8 mph - 0.00 in Rain Light Rain
8:49 AM 68.0 °F 68.0 °F 100% 29.89 in 1.8 mi SSE 6.9 mph - 0.02 in Rain Light Rain
8:54 AM 68.0 °F 68.0 °F 100% 29.83 in 1.8 mi SSE 6.9 mph - 0.03 in Rain Light Rain
9:31 AM 69.8 °F 68.0 °F 94% 29.89 in 2.5 mi SSE 5.8 mph - 0.01 in   Overcast
9:39 AM 69.8 °F 68.0 °F 94% 29.89 in 3.0 mi SSE 5.8 mph - 0.01 in   Overcast
9:44 AM 69.8 °F 68.0 °F 94% 29.89 in 3.0 mi SE 4.6 mph - 0.01 in   Overcast
9:54 AM 70.0 °F 68.0 °F 93% 29.82 in 3.0 mi SSE 4.6 mph - 0.01 in   Overcast
10:02 AM 69.8 °F 69.8 °F 100% 29.89 in 2.0 mi Variable 5.8 mph - N/A   Overcast
10:54 AM 72.0 °F 68.0 °F 87% 29.83 in 2.0 mi SSE 5.8 mph - N/A   Overcast
11:01 AM 71.6 °F 68.0 °F 88% 29.90 in 3.0 mi SSE 6.9 mph - N/A   Overcast
11:26 AM 71.6 °F 68.0 °F 88% 29.91 in 10.0 mi South 4.6 mph - N/A   Overcast
11:54 AM 73.0 °F 69.1 °F 87% 29.84 in 10.0 mi ESE 5.8 mph - N/A   Overcast
12:28 PM 73.4 °F 68.0 °F 83% 29.91 in 10.0 mi SE 6.9 mph - N/A   Overcast
12:54 PM 73.0 °F 68.0 °F 84% 29.83 in 10.0 mi ESE 6.9 mph - N/A   Overcast
1:24 PM 73.4 °F 66.2 °F 78% 29.90 in 10.0 mi ESE 5.8 mph - N/A   Overcast
1:54 PM 75.0 °F 68.0 °F 79% 29.82 in 10.0 mi SE 10.4 mph - 0.00 in   Overcast
2:14 PM 77.0 °F 68.0 °F 74% 29.88 in 10.0 mi ESE 6.9 mph - N/A   Mostly Cloudy
2:54 PM 77.0 °F 68.0 °F 74% 29.80 in 10.0 mi SE 5.8 mph - N/A   Overcast
3:46 PM 78.8 °F 68.0 °F 69% 29.87 in 10.0 mi South 13.8 mph - N/A   Mostly Cloudy
3:54 PM 75.9 °F 68.0 °F 76% 29.80 in 10.0 mi SSE 11.5 mph - N/A   Mostly Cloudy
4:54 PM 77.0 °F 68.0 °F 74% 29.78 in 10.0 mi South 10.4 mph - N/A   Mostly Cloudy
5:54 PM 77.0 °F 66.9 °F 71% 29.79 in 10.0 mi South 10.4 mph - N/A   Partly Cloudy
6:42 PM 77.0 °F 68.0 °F 74% 29.87 in 10.0 mi South 11.5 mph - N/A   Mostly Cloudy
6:54 PM 75.0 °F 68.0 °F 79% 29.80 in 10.0 mi SSW 9.2 mph - N/A   Mostly Cloudy
7:54 PM 73.0 °F 68.0 °F 84% 29.81 in 10.0 mi South 6.9 mph - N/A   Mostly Cloudy
8:37 PM 71.6 °F 68.0 °F 88% 29.90 in 10.0 mi SSW 4.6 mph - N/A   Overcast
8:46 PM 71.6 °F 68.0 °F 88% 29.90 in 10.0 mi SSE 4.6 mph - N/A   Overcast
8:54 PM 72.0 °F 68.0 °F 87% 29.83 in 10.0 mi SSE 4.6 mph - N/A   Overcast
9:54 PM 71.1 °F 68.0 °F 90% 29.84 in 10.0 mi ESE 3.5 mph - N/A   Overcast
10:17 PM 71.6 °F 68.0 °F 88% 29.92 in 10.0 mi Calm Calm - N/A   Overcast
10:54 PM 71.1 °F 68.0 °F 90% 29.84 in 10.0 mi Calm Calm - N/A   Overcast
11:37 PM 69.8 °F 68.0 °F 94% 29.92 in 10.0 mi NNW 4.6 mph - N/A   Overcast
11:54 PM 70.0 °F 68.0 °F 93% 29.84 in 10.0 mi NNW 5.8 mph - N/A   Overcast